Tracking 23752 objects as of 24-Oct-2021
HD Live streaming from Space Station
objects crossing your sky now

FREGAT DEB

Track FREGAT DEB now!
10-day predictions


NORAD ID: 45837
Int'l Code: 2011-037BX
Perigee: 694.8 km
Apogee: 4,314.2 km
Inclination: 51.4 °
Period: 138.7 minutes
Semi major axis: 8875 km
RCS: Unknown
Launch date: July 18, 2011
Source: Commonwealth of Independent States (former USSR) (CIS)
Launch site: TYURATAM MISSILE AND SPACE COMPLEX (TTMTR)

Note: This is SATELLITE DEBRIS
aabbcc
Your satellite tracking list
Your tracking list is empty




NASA's NSSDC Master Catalog

Two Line Element Set (TLE):
1 45837U 11037BX  21297.57376104  .00024271  00000-0  42383-1 0  9990
2 45837  51.4269  50.2702 2038978  88.5616 294.6212 10.38275253 52798
Source of the keplerian elements: AFSPC